Fort Lewis, WA

3:03 AM PDT on May 27, 2017 (GMT -0700)
Gray Army Air Field

Weather History for KGRF - December, 2012

Change the Weather History Date:

Thursday, December 6, 2012

  Actual Average Record
Temperature  
Mean Temperature 40 °F -  
Max Temperature 43 °F 46 °F 54 °F (2015)
Min Temperature 38 °F 34 °F 25 °F (2013)
Degree Days  
Heating Degree Days 24    
Moisture  
Dew Point 40 °F    
Average Humidity 91    
Maximum Humidity 100    
Minimum Humidity 81    
Precipitation  
Precipitation 0.26 in - - ()
Sea Level Pressure  
Sea Level Pressure 30.12 in    
Wind  
Wind Speed 8 mph (South)    
Max Wind Speed 15 mph    
Max Gust Speed -    
Visibility 10 miles    
Events Rain    
Averages and records for this station are not official NWS values.
T = Trace of Precipitation, MM = Missing Value Source: NWS Daily Summary

Daily Weather History Graph

Daily Weather History Graph

Search for Another Location

Airport or City:

Trip Planner

Search our weather history database for the weather conditions in past years. The results will help you decide how hot, cold, wet, or windy it might be!

Date:

Astronomy

Dec. 06, 2012 Rise Set
Actual Time 7:42 AM PST 4:21 PM PST
Civil Twilight 7:06 AM PST 4:56 PM PST
Nautical Twilight 6:28 AM PST 5:34 PM PST
Astronomical Twilight 5:51 AM PST 6:11 PM PST
Moon No Moon Rise 12:14 PM PST (12/6)
Length of Visible Light 9h 49m
Length of Day
8h 39m
Waning Gibbous, 48% of the Moon is Illuminated
Dec 6
Waning Gibbous
Dec 13
New
Dec 19
First Quarter
Dec 28
Full
Jan 4
Last Quarter

Hourly Weather History & Observations

Time (PST) Temp. Windchill Dew Point Humidity Pressure Visibility Wind Dir Wind Speed Gust Speed Precip Events Conditions
12:58 AM 39.6 °F 34.7 °F 38.3 °F 95% 30.20 in 10.0 mi SE 6.9 mph - N/A   Overcast
1:58 AM 41.4 °F 36.8 °F 38.7 °F 90% 30.20 in 10.0 mi SSE 6.9 mph - N/A   Mostly Cloudy
2:18 AM 41.0 °F 36.4 °F 39.2 °F 93% 30.18 in 10.0 mi SSE 6.9 mph - N/A   Overcast
2:33 AM 41.0 °F 35.8 °F 39.2 °F 93% 30.18 in 10.0 mi SSE 8.1 mph - N/A   Overcast
2:48 AM 41.0 °F 36.4 °F 39.2 °F 93% 30.18 in 10.0 mi SSE 6.9 mph - N/A   Overcast
2:58 AM 41.5 °F 37.8 °F 38.8 °F 90% 30.19 in 10.0 mi South 5.8 mph - N/A   Overcast
3:08 AM 41.0 °F 37.1 °F 39.2 °F 93% 30.17 in 10.0 mi South 5.8 mph - N/A   Overcast
3:13 AM 42.8 °F 39.3 °F 39.2 °F 87% 30.17 in 10.0 mi South 5.8 mph - N/A   Overcast
3:28 AM 42.8 °F 37.5 °F 39.2 °F 87% 30.17 in 10.0 mi SSE 9.2 mph - N/A   Overcast
3:58 AM 42.3 °F 36.8 °F 38.1 °F 85% 30.19 in 10.0 mi South 9.2 mph - N/A   Overcast
4:13 AM 42.8 °F 37.0 °F 37.4 °F 81% 30.16 in 10.0 mi SSE 10.4 mph - N/A   Overcast
4:38 AM 42.8 °F 37.5 °F 37.4 °F 81% 30.16 in 10.0 mi South 9.2 mph - N/A   Mostly Cloudy
4:58 AM 42.1 °F 37.7 °F 38.3 °F 86% 30.17 in 10.0 mi SSE 6.9 mph - N/A   Overcast
5:18 AM 42.8 °F 38.6 °F 37.4 °F 81% 30.15 in 10.0 mi SSE 6.9 mph - N/A   Overcast
5:58 AM 42.3 °F 38.6 °F 38.1 °F 85% 30.16 in 10.0 mi South 5.8 mph - N/A   Overcast
6:18 AM 42.8 °F 37.5 °F 37.4 °F 81% 30.13 in 10.0 mi SSE 9.2 mph - N/A   Mostly Cloudy
6:58 AM 42.4 °F 36.1 °F 38.1 °F 85% 30.14 in 10.0 mi SSE 11.5 mph - N/A   Mostly Cloudy
7:21 AM 42.8 °F 38.0 °F 37.4 °F 81% 30.12 in 10.0 mi South 8.1 mph - N/A   Overcast
7:32 AM 42.8 °F 38.0 °F 39.2 °F 87% 30.12 in 10.0 mi SSE 8.1 mph - N/A   Overcast
7:42 AM 42.8 °F 37.5 °F 37.4 °F 81% 30.12 in 10.0 mi South 9.2 mph - N/A   Overcast
7:58 AM 42.4 °F 37.0 °F 38.3 °F 85% 30.13 in 10.0 mi South 9.2 mph - 0.00 in   Overcast
8:53 AM 42.8 °F 35.4 °F 37.4 °F 81% 30.12 in 10.0 mi SSE 15.0 mph - N/A   Mostly Cloudy
8:58 AM 43.0 °F 36.0 °F 38.3 °F 84% 30.13 in 10.0 mi SSE 13.8 mph - N/A   Mostly Cloudy
9:53 AM 42.8 °F 36.6 °F 39.2 °F 87% 30.12 in 10.0 mi SSE 11.5 mph - N/A   Overcast
9:58 AM 43.5 °F 37.9 °F 39.6 °F 86% 30.14 in 10.0 mi South 10.4 mph - N/A   Overcast
10:02 AM 42.8 °F 36.2 °F 39.2 °F 87% 30.12 in 10.0 mi SSE 12.7 mph - N/A   Overcast
10:12 AM 42.8 °F 36.6 °F 39.2 °F 87% 30.12 in 10.0 mi SSE 11.5 mph - N/A   Light Drizzle
10:27 AM 42.8 °F 36.6 °F 41.0 °F 93% 30.11 in 10.0 mi South 11.5 mph - N/A   Light Drizzle
10:29 AM 42.8 °F 37.0 °F 41.0 °F 93% 30.11 in 10.0 mi South 10.4 mph - N/A   Mostly Cloudy
10:30 AM 42.8 °F 37.5 °F 41.0 °F 93% 30.11 in 10.0 mi South 9.2 mph - N/A   Light Drizzle
10:35 AM 42.8 °F 37.0 °F 41.0 °F 93% 30.12 in 10.0 mi South 10.4 mph - N/A   Light Drizzle
10:40 AM 42.8 °F 37.0 °F 41.0 °F 93% 30.12 in 10.0 mi South 10.4 mph - N/A   Light Drizzle
10:50 AM 42.8 °F 37.0 °F 41.0 °F 93% 30.12 in 10.0 mi South 10.4 mph - N/A   Light Drizzle
10:58 AM 43.0 °F 37.7 °F 40.3 °F 90% 30.14 in 10.0 mi South 9.2 mph - 0.02 in   Light Drizzle
11:19 AM 42.8 °F 36.2 °F 41.0 °F 93% 30.10 in 10.0 mi South 12.7 mph - N/A   Overcast
11:35 AM 42.8 °F 36.6 °F 41.0 °F 93% 30.10 in 10.0 mi South 11.5 mph - N/A   Light Drizzle
11:55 AM 42.8 °F 38.0 °F 41.0 °F 93% 30.10 in 8.0 mi South 8.1 mph - N/A Rain Light Rain
11:58 AM 43.0 °F 37.2 °F 40.6 °F 91% 30.12 in 7.0 mi South 10.4 mph - 0.03 in Rain Light Rain
12:23 PM 42.8 °F 38.6 °F 41.0 °F 93% 30.10 in 5.0 mi SSW 6.9 mph - N/A Rain Light Rain
12:28 PM 42.8 °F 38.6 °F 41.0 °F 93% 30.10 in 4.0 mi SSW 6.9 mph - N/A Rain Light Rain
12:43 PM 42.8 °F 38.0 °F 41.0 °F 93% 30.10 in 5.0 mi South 8.1 mph - N/A Rain Light Rain
12:53 PM 42.8 °F 37.5 °F 41.0 °F 93% 30.09 in 10.0 mi South 9.2 mph - N/A Rain Light Rain
12:58 PM 43.0 °F 38.2 °F 41.0 °F 93% 30.11 in 10.0 mi South 8.1 mph - 0.11 in   Light Drizzle
1:04 PM 42.8 °F 37.5 °F 41.0 °F 93% 30.09 in 10.0 mi SSE 9.2 mph - N/A   Overcast
1:26 PM 42.8 °F 37.0 °F 41.0 °F 93% 30.08 in 10.0 mi SSE 10.4 mph - N/A   Light Drizzle
1:51 PM 42.8 °F 37.0 °F 41.0 °F 93% 30.07 in 10.0 mi SSE 10.4 mph - N/A Rain Light Rain
1:58 PM 42.8 °F 37.5 °F 41.0 °F 93% 30.09 in 10.0 mi SSE 9.2 mph - 0.04 in Rain Light Rain
2:03 PM 42.8 °F 37.5 °F 41.0 °F 93% 30.07 in 10.0 mi South 9.2 mph - N/A   Light Drizzle
2:08 PM 42.8 °F 37.0 °F 41.0 °F 93% 30.07 in 10.0 mi South 10.4 mph - N/A Rain Light Rain
2:18 PM 42.8 °F 37.5 °F 41.0 °F 93% 30.07 in 10.0 mi South 9.2 mph - N/A   Mostly Cloudy
2:23 PM 42.8 °F 37.5 °F 41.0 °F 93% 30.07 in 10.0 mi South 9.2 mph - N/A   Mostly Cloudy
2:25 PM 42.8 °F 38.0 °F 41.0 °F 93% 30.07 in 10.0 mi South 8.1 mph - N/A   Light Drizzle
2:34 PM 42.8 °F 38.0 °F 41.0 °F 93% 30.07 in 10.0 mi South 8.1 mph - N/A   Mostly Cloudy
2:49 PM 42.8 °F 38.0 °F 42.8 °F 100% 30.07 in 10.0 mi South 8.1 mph - N/A   Overcast
2:54 PM 42.8 °F 38.0 °F 42.8 °F 100% 30.07 in 10.0 mi South 8.1 mph - N/A   Overcast
2:58 PM 43.5 °F 38.9 °F 41.9 °F 94% 30.09 in 10.0 mi SSE 8.1 mph - 0.01 in   Overcast
3:38 PM 42.8 °F 38.0 °F 42.8 °F 100% 30.07 in 10.0 mi South 8.1 mph - N/A   Overcast
3:58 PM 43.5 °F 38.9 °F 42.1 °F 95% 30.10 in 10.0 mi South 8.1 mph - 0.02 in Rain Light Rain
4:13 PM 42.8 °F 39.3 °F 42.8 °F 100% 30.08 in 10.0 mi South 5.8 mph - N/A Rain Light Rain
4:18 PM 42.8 °F 38.0 °F 42.8 °F 100% 30.08 in 10.0 mi SSW 8.1 mph - N/A   Light Drizzle
4:33 PM 42.8 °F 38.0 °F 41.0 °F 93% 30.08 in 9.0 mi South 8.1 mph - N/A   Light Drizzle
4:34 PM 42.8 °F 38.6 °F 41.0 °F 93% 30.08 in 10.0 mi SSW 6.9 mph - N/A   Overcast
4:44 PM 42.8 °F 38.0 °F 41.0 °F 93% 30.08 in 10.0 mi SSE 8.1 mph - N/A   Mostly Cloudy
4:58 PM 43.2 °F 39.0 °F 41.7 °F 95% 30.10 in 10.0 mi South 6.9 mph - 0.03 in   Mostly Cloudy
5:58 PM 42.8 °F 37.0 °F 40.8 °F 93% 30.10 in 10.0 mi South 10.4 mph - N/A   Scattered Clouds
6:58 PM 41.9 °F 36.9 °F 39.9 °F 93% 30.12 in 10.0 mi SSE 8.1 mph - N/A   Clear
7:58 PM 39.4 °F 33.8 °F 38.5 °F 97% 30.13 in 10.0 mi SSE 8.1 mph - N/A   Clear
8:58 PM 38.8 °F 33.8 °F 38.7 °F 99% 30.15 in 10.0 mi SE 6.9 mph - N/A   Clear
9:58 PM 38.7 °F 32.4 °F 38.3 °F 99% 30.14 in 10.0 mi SE 9.2 mph - N/A   Clear
10:58 PM 40.3 °F 34.9 °F 40.1 °F 99% 30.14 in 10.0 mi SE 8.1 mph - N/A   Overcast
11:58 PM 41.0 °F 35.8 °F 40.1 °F 97% 30.14 in 10.0 mi SSE 8.1 mph - N/A   Overcast